THOR ABLESTAR DEB, 538

Orbit data source: Space-Track

THOR ABLESTAR DEB, 538 is space debris in LEO originally from a launch on Thu, 29 Jun 1961 UTC launched from the Air Force Eastern Test Range (AFETR). Debris objects in space refer to the collection of defunct objects orbiting the Earth. Examples of debris include non-operational satellites, rocket bodies, and fragments generated from explosions, collisions, or faulty payload assembly.

Loading next visibility...
Identifier
538, 1961-015FX
Orbit
LEO
Country
Flag of USUS
Related business
Manufacturer
Unknown
Mission
Spacecraft
Bus & Motor
Unknown
Mass
Unknown
Launch date (UTC)
1961-06-29 (64 years ago)
Launch vehicle
Unknown
Launch site
Air Force Eastern Test Range (AFETR)
Object type
Payload
Rocket body
Debris
Shape & HBR
Unknown shape, 0.1 m
Radar Cross Section
Small (<0.1 m²)

Expand to show TLE details & history
Last TLE update: 8 hours ago

TLE from 8 hours ago
0 THOR ABLESTAR DEB
1 00538U 61015FX  25292.27024017  .00017240  00000-0  33935-2 0  9991
2 00538  67.8040 237.5445 0005804 205.4367 154.6472 14.62617929328332
Epoch: 2025-10-19T06:29Z
TLE epoch observation values (Epoch: 2025-10-19T06:29:08.750Z)
Latitude
-0.00003°
Longitude
112.26871°
Altitude
690.664 km
Speed
7.509 km/s
True Right ascension
15h 50m 10s
True Declination
0° 00' 00"
Sunlit
Object was in daylight at epoch
Visualization orbit readout
Latitude
Unknown
Longitude
Unknown
Altitude
Unknown
Speed
Unknown
Apparent Right ascension
Unknown
Apparent Declination
Unknown
Sunlit
N/A
Visualization observer readout
Local Sidereal Time
09:03:04
Azimuth
Unknown
Elevation
Unknown
Doppler factor
Unknown
Orbital elements
Apogee altitude
687.054 km
Perigee altitude
678.857 km
Semi-major axis
7,061.092 km
Eccentricity
0.00058
Inclination
67.804°
RAAN
237.5445°
Arg. of periapsis
205.4367°
True anomaly
154.67566°
Mean anomaly
154.6472°
Eccentric anomaly
154.66143°
Mean motion
3.65793 °/min
Orbital period
98.42 mins
BSTAR
0.0033935

Documentation

Showing up to 5 results
|